Tracking 27122 objects as of 26-Mar-2023
HD Live streaming from Space Station
objects crossing your sky now

STARLINK-2620

Track STARLINK-2620 now!
10-day predictions
STARLINK-2620 is classified as:


NORAD ID: 48453
Int'l Code: 2021-040AB
Perigee: 553.5 km
Apogee: 555.6 km
Inclination: 53.1 °
Period: 95.6 minutes
Semi major axis: 6925 km
RCS: Unknown
Launch date: May 9, 2021
Source: United States (US)
Launch site: AIR FORCE EASTERN TEST RANGE (AFETR)
Your satellite tracking list
Your tracking list is empty




NASA's NSSDC Master Catalog

Two Line Element Set (TLE):
1 48453U 21040AB  23084.91133718  .00039441  00000-0  26562-2 0  9995
2 48453  53.0535 348.9304 0001548  72.1494 287.9663 15.06340265103886
Source of the keplerian elements: AFSPC